Back to catalog

MAANSHAN ZHISHUAN 1

AliveScienceSSO
NORAD 63988·PAYLOAD·🇨🇳 China
This satellite name has not been confirmed by official sources yet.

Launched May 14, 2025 from Jiuquan Satellite Launch Center

Loading…

Next Passes (next 24 hours)

TLE

FreshSource: Space-Track

Epoch: Sep 14, 2026, 15:11 UTC

1 63988U 25100G   26257.63309377  .00003895  00000-0  14773-3 0  9992
2 63988  97.3630 331.4886 0012154 356.7072   3.4085 15.27392862 74411

Track MAANSHAN ZHISHUAN 1 in real time with AllMySat

Download on the App Store